logo tempoitalia

Diretta Meteo Clinton-Sherman, Stati Uniti (USA)lunedì 31 agosto ore 00:53

Mappa
Sereno 29 °C Sereno 24 Ore: T.min 26 T.max 39
Ponente Sud Km/h 31.5 Punto di rugiada: 12 °C Umidità: 35% Visibilità: 10 Km
Il sole sorge alle: 07:08 Il sole tramonta alle: 20:05
31 Agosto 2026 00:53 tempo osservato: Sereno Sereno 29 35 1014 vento: Nord S 31.5
30 Agosto 2026 23:53 tempo osservato: Sereno Sereno 31 31 1014 vento: Nord S/SE 33.3
30 Agosto 2026 22:53 tempo osservato: Sereno Sereno 31 33 1014 vento: Nord S/SE 22.2
30 Agosto 2026 21:53 tempo osservato: Sereno Sereno 32 31 1013 vento: Nord S/SE 20.3
30 Agosto 2026 20:53 tempo osservato: Sereno Sereno 33 29 1013 vento: Nord S/SE 22.2
30 Agosto 2026 19:53 tempo osservato: Sereno Sereno 35 24 1012 vento: Nord S 20.3
30 Agosto 2026 18:53 tempo osservato: Sereno Sereno 37 23 1012 vento: Nord S/SE 29.6
30 Agosto 2026 17:53 tempo osservato: Sereno Sereno 38 24 1012 vento: Nord S 31.5
30 Agosto 2026 16:53 tempo osservato: Sereno Sereno 38 24 1012 vento: Nord S 33.3
30 Agosto 2026 15:53 tempo osservato: Sereno Sereno 39 26 1012 vento: Nord S/SE 35.2
30 Agosto 2026 14:53 tempo osservato: Sereno Sereno 38 27 1014 vento: Nord S 20.3
30 Agosto 2026 13:53 tempo osservato: Sereno Sereno 37 28 1014 vento: Nord S 31.5
30 Agosto 2026 12:53 tempo osservato: Sereno Sereno 37 30 1015 vento: Nord S/SO 29.6
30 Agosto 2026 11:53 tempo osservato: Sereno Sereno 34 36 1016 vento: Nord S/SO 31.5
30 Agosto 2026 10:53 tempo osservato: Sereno Sereno 33 38 1016 vento: Nord S/SO 33.3
30 Agosto 2026 09:53 tempo osservato: Sereno Sereno 32 40 1016 vento: Nord S 40.7
30 Agosto 2026 08:53 tempo osservato: Sereno Sereno 29 48 1015 vento: Nord S 38.8
30 Agosto 2026 07:53 tempo osservato: Sereno Sereno 27 50 1015 vento: Nord S 29.6
30 Agosto 2026 06:53 tempo osservato: Sereno Sereno 26 54 1015 vento: Nord S 27.8
30 Agosto 2026 05:53 tempo osservato: Sereno Sereno 26 50 1014 vento: Nord S 25.9
30 Agosto 2026 04:53 tempo osservato: Sereno Sereno 26 47 1014 vento: Nord S 20.3
30 Agosto 2026 03:53 tempo osservato: Sereno Sereno 27 44 1014 vento: Nord N 0
30 Agosto 2026 02:53 tempo osservato: Sereno Sereno 28 42 1014 vento: Nord N 0
30 Agosto 2026 01:53 tempo osservato: Sereno Sereno 29 39 1015 vento: Nord S 31.5